Погода в Барде

Погода в Барде : погода сейчас, прогноз погоды и архив. Всё, что Вы хотите узнать о погоде в Барде!

Поиск расширенной информации на нашем сайте:

Другие новости

Новости СМИ2

Главная страница сайта

Новости сайта

03.07.2017

Напоминаем, что на нашем специализированном сайте Метеоцентр.Азия вы можете получить высокодетализированные автоматические прогнозы погоды по пунктам России, СНГ и мира в авиационном формате (включающие направление и скорость ветра, видимость, явления погоды, количество и форму облачности, нижнюю и верхнюю границу облачности).


Погода в Барде - сегодня

Время (UTC), дата Ветер
(°,м/с) 
Видим.   Явления Облачность Т
(°С)
Тd
(°С)
f(%) Тe
(°С)
Pmin
(гПа)
dP
(гПа)
Po
(мм)
O2
(г/м3)
Тmin Tmax R s Состояние
почвы
06 05.05.17 тихо ()   20000 м    8/8 600 м 
[Cu med, cong]
+19.9 +13.8 68 +26  1013.8  -0.2  754  280           
09 05.05.17 120 (ЮВ) 20000 м    5/5 600 м 
[Cu med, cong]
+23.5 +4.2 28 +24  1013.5  -0.2  754  279           
12 05.05.17 180 (Ю) 4000 м  слаб. ливневой дождь  9/9 600 м кучево-дожд. 
[Cb calv]
+22.4 +15.4 65 +32  1013.9  0.4  754  278           
15 05.05.17 160 (Ю) 20000 м    9/9 600 м 
[Cu med, cong]
+20.8 +16.5 76 +32  1013.2  -0.7  754  279         
18 05.05.17 тихо ()   10 км    9/9 600 м 
[Cu med, cong]
+18.9 +15.7 82 +29  1014.3  755  281    +24.1       
21 05.05.17 180 (Ю) 10 км    9/9 600 м 
[Cu med, cong]
+16.9 +12 73 +22  1016  1.7  756  285           
00 06.05.17 тихо ()   10 км    9/9 600 м 
[Cu med, cong]
+15.5 +13.1 86 +21  1015.6  -0.4  756  285           
03 06.05.17 тихо ()   20000 м    9/9 600 м 
[Cu med, cong]
+15.5 +13.9 90 +22  1016  0.4  756  285      0.3     
06 06.05.17 110 (В) 20000 м    9/9 600 м 
[Cu med, cong]
+16.9 +15.1 89 +27  1017.2  1.2  757  284           
09 06.05.17 110 (В) 20000 м    8/8 600 м 
[Cu med, cong]
+22.5 +12.7 54 +27  1017  -0.1  757  279           
12 06.05.17 180 (Ю) 20000 м    8/8 600 м 
[Cu med, cong]
+23.5 +13.3 53 +29  1015.1  1.9  755  278           
15 06.05.17 260 (З) 20000 м    9/9 600 м 
[Cu med, cong]
+21.5 +15.5 69 +31  1014.3  -0.8  755  279      0.0     
18 06.05.17 250 (З) 10 км    6/6 600 м 
[Cu med, cong]
+18.5 +15.6 83 +30  1014.5  0.1  755  281    +24.1       
21 06.05.17 290 (З) 10 км    5/5 600 м 
[Cu med, cong]
+15.1 +13.1 88 +21  1013.6  -0.9  754  285           
00 07.05.17 290 (З) 10 км    8/4 600 м верхняя 
[Cu med, cong|Ci fib]
+13.7 +12 89 +19  1012.7  -0.9  753  287           
03 07.05.17 290 (З) 20000 м    ясно 
+12.7 +11.4 92 +17  1012.2  -0.5  753  288      0.0     
06 07.05.17 290 (З) 20000 м    3/0 верхняя 
[Ci fib]
+21.1 +15.2 69 +30  1012.4  0.2  753  279           
12 27.05.17 тихо ()   4000 м  гроза без осадков  8/8 600 м 
+24.6 +18.7 70 +25  1010.5  -1.7             
18 02.06.17 280 (З) 10 км  в посл. час гроза  8/8 600 м кучево-дожд. 
[Cb calv]
+21.1 +15.9 72 +31  1012.1  3.2  753  278    +30.1       
06 05.06.17 180 (Ю) 20000 м    3/3 600 м 
[Cu med, cong]
+22.9 +16.5 67 +34  1020.3  0.6  759  279           
12 05.06.17 140 (ЮВ) 20000 м    4/4 600 м 
[Cu med, cong]
+27.7 +17.2 53 +40  1018.9  758  274           
09 06.07.17 180 (Ю) 20000 м    8/8 600 м 
[Cu med, cong]
+30.1 +20.2 55 +49  1013.1  -0.3  754  269           
15 16.07.17 120 (ЮВ) 20000 м    4/0 средняя 
[Ac trans]
+32.7 +16.4 38 +44  1011.1  -0.5  752  267           
15 24.07.17 220 (ЮЗ) 20000 м    ясно 
+31.7 +18.3 45 +47  1006.3  -0.9  749  266           
12 26.07.17 тихо ()   20000 м    5/3 600 м верхняя 
[Cu med, cong|Ci fib]
+35.2 +18.2 37 +50  1005.1  -0.9  748  263           
Время (UTC), дата Ветер
(°,м/с) 
Видим.   Явления Облачность Т
(°С)
Тd
(°С)
f(%) Тe
(°С)
Pmin
(гПа)
dP
(гПа)
Po
(мм)
O2
(г/м3)
Тmin Tmax R s Состояние
почвы

Для получения пояснительной информации подведите курсор к названию столбца.

ПОГОДА в Барде - архив

Всё, что Вы хотите узнать о погоде в Барде - удобно и подробно!

Выберите нужную дату (начиная с 1 января 2015* года) и нажмите кнопку "Найти".
Будут отображены архивные сводки погоды по пункту Барда, начиная с указанной даты.


Отображать данные в формате CSV (для использования в таблицах Excel)


Внимание! Наш архив погоды предназначен исключительно для личного некоммерческого использования в познавательных целях. Если Вам необходимы официальные справки о состоянии погоды (для производственных, юридических, коммерческих и т.п. целей), обращайтесь в органы Росгидромета.

*Примечание: данная дата относится к архиву по метеостанциям СССР (Россия, СНГ, Балтия).
Архив по метеостанциям Зарубежной Европы и Азии (кроме Китая) хранится 10 дней, по другим регионам земного шара (Китай, Африка, Америка, Австралия, Океания) - 1 день.

Барда - район местоположения метеостанции


Название, широта, долгота, высота метеостанции:
Барда 40.4°ш. 47.1°д. 69 м над ур. моря [Азербайджан]

Дополнительная информация

В oтличие oт бoльшинства пoгoдных сайтoв мы публикуем пoдрoбную метеoинфoрмацию в детальнoм прoфессиoнальнoм фoрмате.

Характеристики температуры и влажнoсти вoздуха измеряются на высoте 2 м в тени вдали oт зданий и деревьев.
Скoрoсть ветра измеряется на высoте 10 м (на урoвне рoста челoвека скoрoсть ветра ниже в 1.5-2 раза). Если метеoстанция нахoдится в гoрoде или в лесу, тo скoрoсть ветра занижена на 2-4 м/с пo сравнению с oткрытым местoм. Скoрoсть ветра над акватoриями крупных рек и oзёр, а также на вершинах хoлмoв на 2-5 м/с выше, чем в oбычных услoвиях.
Атмoсфернoе давление в разных тoчках местнoсти мoжет значительнo oтличаться oт давления на метеoстанции, в зависимoсти oт услoвий рельефа (при пoдъёме на 10 м давление пoнижается примернo на 1 мм рт.ст.).